Date String (YYYY-MM-DD hh:mm:ss) UTC,Instrument flags,Ambient pressure (hPa),Sample flow (lpm),Bypass flow (lpm),Sample temperature (°C),Ambient temperature (°C),ASC tube jacket temperature (°C),LED temperature (°C),Box temperature (°C),Sample RH (%),Span deviation,Mass concentration (μg/m³),Mass concentration (μg/m³),Mass concentration (μg/m³)
DateTimeUTC,F1_M11,P_M11,Q1_M11,Q2_M11,T1_M11,T2_M11,T3_M11,T4_M11,T5_M11,U1_M11,ZSPAN_M11,X2_M11,X0_M11,X1_M11
2023-01-17 21:00:00,,0812.9,5.01,0.00,22.8,21.2,00.0,31.7,24.6,15.3,-002.1,0006.56,0010.24,0006.09
2023-01-17 21:01:00,,0812.9,5.00,0.00,22.8,21.1,00.0,31.7,24.5,15.4,-002.1,0006.53,0010.23,0006.05
2023-01-17 21:02:00,,0812.8,5.01,0.00,22.8,21.1,00.0,31.7,24.5,15.4,-002.0,0006.53,0010.58,0006.02
2023-01-17 21:03:00,,0812.8,4.99,0.00,22.8,21.0,00.0,31.7,24.4,15.5,-001.9,0006.54,0010.98,0006.01
2023-01-17 21:04:00,,0812.8,5.00,0.00,22.7,20.9,00.0,31.7,24.4,15.5,-001.4,0006.55,0011.18,0006.02
2023-01-17 21:05:00,,0812.9,5.01,0.00,22.7,20.9,00.0,31.7,24.3,15.5,-001.2,0006.55,0010.98,0006.01
2023-01-17 21:06:00,,0812.9,5.01,0.00,22.7,20.9,00.0,31.7,24.3,15.6,-001.2,0006.51,0010.91,0006.00
2023-01-17 21:07:00,,0812.9,4.98,0.00,22.6,20.8,00.0,31.6,24.3,15.7,-000.7,0006.48,0010.99,0005.99
2023-01-17 21:08:00,,0813.0,4.99,0.00,22.6,21.0,00.0,31.6,24.3,15.7,-000.5,0006.47,0011.23,0005.97
2023-01-17 21:09:00,,0813.0,5.00,0.00,22.7,21.8,00.0,31.6,24.6,15.6,-000.4,0006.46,0012.13,0005.95
2023-01-17 21:10:00,,0813.1,5.00,0.00,22.8,22.7,00.0,31.6,24.8,15.6,-000.5,0006.45,0013.24,0005.94
2023-01-17 21:11:00,,0813.1,4.98,0.00,22.9,22.7,00.0,31.6,24.9,15.5,-000.4,0006.42,0013.79,0005.92
2023-01-17 21:12:00,,0813.2,5.01,0.00,22.9,22.4,00.0,31.6,24.8,15.5,-000.1,0006.43,0013.93,0005.90
2023-01-17 21:13:00,,0813.1,5.00,0.00,22.9,22.1,00.0,31.7,24.7,15.6,-000.3,0006.40,0013.74,0005.88
2023-01-17 21:14:00,,0813.2,4.98,0.00,22.9,21.9,00.0,31.7,24.7,15.5,-000.1,0006.36,0013.59,0005.85
2023-01-17 21:15:00,,0813.0,5.00,0.00,22.9,21.7,00.0,31.7,24.6,15.5,0000.1,0006.30,0013.28,0005.81
2023-01-17 21:16:00,,0812.9,5.01,0.00,22.9,21.6,00.0,31.7,24.6,15.6,0000.2,0006.22,0013.06,0005.78
2023-01-17 21:17:00,,0812.8,4.99,0.00,22.8,21.5,00.0,31.7,24.6,15.6,0000.2,0006.18,0012.98,0005.74
2023-01-17 21:18:00,,0812.7,5.00,0.00,22.8,21.4,00.0,31.7,24.5,15.6,-000.1,0006.14,0012.98,0005.71
2023-01-17 21:19:00,,0812.7,5.00,0.00,22.8,21.3,00.0,31.7,24.5,15.6,-000.9,0006.09,0013.20,0005.68
2023-01-17 21:20:00,,0812.7,5.00,0.00,22.8,21.3,00.0,31.7,24.5,15.7,-001.5,0006.05,0013.23,0005.64
2023-01-17 21:21:00,,0812.7,5.01,0.00,22.8,21.2,00.0,31.7,24.5,15.8,-001.8,0006.02,0011.86,0005.60
2023-01-17 21:22:00,,0812.8,5.00,0.00,22.8,21.2,00.0,31.7,24.5,15.8,-001.9,0005.98,0011.10,0005.56
2023-01-17 21:23:00,,0812.8,4.99,0.00,22.7,21.1,00.0,31.7,24.4,15.7,-001.8,0005.91,0011.18,0005.53
2023-01-17 21:24:00,,0812.8,5.01,0.00,22.7,21.2,00.0,31.7,24.4,15.7,-001.4,0005.85,0011.66,0005.50
2023-01-17 21:25:00,,0812.8,5.01,0.00,22.7,21.2,00.0,31.6,24.5,15.7,-001.1,0005.80,0011.16,0005.48
2023-01-17 21:26:00,,0812.8,5.01,0.00,22.7,21.3,00.0,31.6,24.5,15.7,-001.2,0005.81,0011.19,0005.47
2023-01-17 21:27:00,,0812.9,5.00,0.00,22.7,21.4,00.0,31.6,24.5,15.8,-001.8,0005.79,0011.31,0005.45
2023-01-17 21:28:00,,0812.9,4.99,0.00,22.8,21.4,00.0,31.6,24.6,15.8,-001.9,0005.81,0011.34,0005.44
2023-01-17 21:29:00,,0813.0,5.00,0.00,22.8,21.4,00.0,31.6,24.6,15.8,-002.2,0005.81,0011.13,0005.43
2023-01-17 21:30:00,,0813.1,5.00,0.00,22.8,21.4,00.0,31.6,24.6,15.7,-002.0,0005.82,0011.02,0005.42
2023-01-17 21:31:00,,0813.0,4.99,0.00,22.8,21.5,00.0,31.5,24.6,15.6,-001.8,0005.79,0009.75,0005.40
2023-01-17 21:32:00,,0813.1,5.01,0.00,22.8,21.5,00.0,31.5,24.7,15.7,-001.5,0005.77,0009.91,0005.41
2023-01-17 21:33:00,,0813.0,5.00,0.00,22.8,21.6,00.0,31.6,24.7,15.6,-001.3,0005.77,0010.22,0005.42
2023-01-17 21:34:00,,0813.1,5.00,0.00,22.8,21.6,00.0,31.6,24.7,15.6,-000.6,0005.77,0009.98,0005.41
2023-01-17 21:35:00,,0813.1,4.99,0.00,22.8,21.7,00.0,31.6,24.7,15.6,0000.0,0005.78,0009.25,0005.41
2023-01-17 21:36:00,,0813.1,5.00,0.00,22.9,21.6,00.0,31.6,24.7,15.6,0000.0,0005.80,0009.23,0005.41
2023-01-17 21:37:00,,0813.1,5.00,0.00,22.9,21.6,00.0,31.6,24.7,15.6,-002.0,0005.76,0009.64,0005.40
2023-01-17 21:38:00,,0813.1,5.00,0.00,22.9,21.6,00.0,31.6,24.8,15.6,0000.0,0005.78,0009.85,0005.38
2023-01-17 21:39:00,,0813.2,5.01,0.00,22.9,21.6,00.0,31.6,24.8,15.6,0000.0,0005.74,0009.82,0005.37
2023-01-17 21:40:00,,0813.2,5.00,0.00,22.9,21.7,00.0,31.6,24.8,15.7,-000.5,0005.72,0009.79,0005.36
2023-01-17 21:41:00,,0813.1,5.00,0.00,22.9,21.7,00.0,31.6,24.8,15.7,-001.7,0005.73,0009.81,0005.37
2023-01-17 21:42:00,,0813.1,5.00,0.00,22.9,21.6,00.0,31.6,24.8,15.6,-001.2,0005.75,0009.81,0005.36
2023-01-17 21:43:00,,0813.2,4.99,0.00,22.9,21.5,00.0,31.6,24.7,15.6,-000.7,0005.77,0009.68,0005.35
2023-01-17 21:44:00,,0813.2,5.00,0.00,22.9,21.4,00.0,31.6,24.7,15.6,-000.3,0005.74,0009.30,0005.34
2023-01-17 21:45:00,,0813.2,4.99,0.00,22.9,21.3,00.0,31.6,24.7,15.7,-000.1,0005.73,0009.31,0005.32
2023-01-17 21:46:00,,0813.2,5.00,0.00,22.9,21.3,00.0,31.6,24.7,15.7,0000.2,0005.70,0009.31,0005.30
2023-01-17 21:47:00,,0813.3,4.99,0.00,22.9,21.2,00.0,31.6,24.7,15.7,0000.3,0005.67,0009.23,0005.27
2023-01-17 21:48:00,,0813.3,4.98,0.00,22.9,21.2,00.0,31.6,24.6,15.8,0000.1,0005.67,0008.92,0005.25
2023-01-17 21:49:00,,0813.3,5.01,0.00,22.9,21.2,00.0,31.6,24.6,15.7,0000.1,0005.64,0008.62,0005.24
2023-01-17 21:50:00,,0813.3,5.01,0.00,22.8,21.2,00.0,31.6,24.6,15.7,0000.1,0005.61,0008.61,0005.22
2023-01-17 21:51:00,,0813.2,5.00,0.00,22.8,21.1,00.0,31.6,24.6,15.8,0000.2,0005.59,0008.99,0005.21
2023-01-17 21:52:00,,0813.2,5.00,0.00,22.8,21.1,00.0,31.6,24.6,15.9,-000.2,0005.54,0009.12,0005.19
2023-01-17 21:53:00,,0813.2,4.99,0.00,22.8,21.1,00.0,31.6,24.5,15.9,0000.0,0005.50,0009.06,0005.18
2023-01-17 21:54:00,,0813.2,5.02,0.00,22.8,21.2,00.0,31.6,24.6,15.8,0000.0,0005.47,0009.14,0005.17
2023-01-17 21:55:00,,0813.3,5.00,0.00,22.8,21.2,00.0,31.6,24.5,15.9,0000.0,0005.49,0009.65,0005.17
2023-01-17 21:56:00,,0813.3,5.01,0.00,22.8,21.1,00.0,31.6,24.5,15.8,0000.0,0005.49,0009.64,0005.18
2023-01-17 21:57:00,,0813.4,5.01,0.00,22.7,21.1,00.0,31.6,24.5,15.8,0000.0,0005.51,0009.65,0005.20
2023-01-17 21:58:00,,0813.4,5.00,0.00,22.7,21.1,00.0,31.6,24.5,15.8,0000.0,0005.53,0009.69,0005.23
2023-01-17 21:59:00,,0813.4,4.99,0.00,22.7,21.0,00.0,31.5,24.5,15.9,0000.0,0005.52,0009.61,0005.25
